TimeEDT,TemperatureF,Dew PointF,Humidity,Sea Level PressureIn,VisibilityMPH,Wind Direction,Wind SpeedMPH,Gust SpeedMPH,PrecipitationIn,Events,Conditions,WindDirDegrees,DateUTC
12:15 AM,37.4,19.4,48,30.02,10.0,South,6.9,-,N/A,,Clear,180,2013-03-31 04:15:00
12:35 AM,37.4,19.4,48,30.01,10.0,South,6.9,-,N/A,,Clear,180,2013-03-31 04:35:00
12:55 AM,37.4,19.4,48,30.00,10.0,South,5.8,-,N/A,,Clear,180,2013-03-31 04:55:00
1:15 AM,37.4,19.4,48,29.99,10.0,South,6.9,-,N/A,,Clear,180,2013-03-31 05:15:00
1:35 AM,37.4,19.4,48,29.99,10.0,South,6.9,-,N/A,,Clear,180,2013-03-31 05:35:00
1:55 AM,37.4,19.4,48,29.98,10.0,South,5.8,-,N/A,,Clear,170,2013-03-31 05:55:00
2:15 AM,37.4,19.4,48,29.97,10.0,South,5.8,-,N/A,,Clear,180,2013-03-31 06:15:00
2:35 AM,37.4,19.4,48,29.97,10.0,South,5.8,-,N/A,,Clear,170,2013-03-31 06:35:00
2:55 AM,37.4,19.4,48,29.96,10.0,South,5.8,-,N/A,,Clear,170,2013-03-31 06:55:00
3:15 AM,37.4,19.4,48,29.95,10.0,South,6.9,-,N/A,,Clear,170,2013-03-31 07:15:00
3:35 AM,37.4,19.4,48,29.94,10.0,South,6.9,-,N/A,,Clear,170,2013-03-31 07:35:00
3:55 AM,37.4,19.4,48,29.93,10.0,South,5.8,-,N/A,,Clear,180,2013-03-31 07:55:00
4:15 AM,37.4,19.4,48,29.92,10.0,South,6.9,-,N/A,,Clear,180,2013-03-31 08:15:00
4:35 AM,37.4,19.4,48,29.91,10.0,South,6.9,-,N/A,,Clear,170,2013-03-31 08:35:00
4:55 AM,37.4,19.4,48,29.90,10.0,South,9.2,-,N/A,,Clear,170,2013-03-31 08:55:00
5:15 AM,37.4,19.4,48,29.89,10.0,South,6.9,-,N/A,,Partly Cloudy,170,2013-03-31 09:15:00
5:35 AM,37.4,19.4,48,29.88,10.0,South,9.2,-,N/A,,Partly Cloudy,170,2013-03-31 09:35:00
5:55 AM,37.4,19.4,48,29.87,10.0,South,9.2,-,N/A,,Partly Cloudy,180,2013-03-31 09:55:00
6:15 AM,37.4,19.4,48,29.87,10.0,South,10.4,-,N/A,,Clear,170,2013-03-31 10:15:00
6:35 AM,37.4,19.4,48,29.86,10.0,South,9.2,-,N/A,,Clear,170,2013-03-31 10:35:00
6:55 AM,39.2,17.6,42,29.86,10.0,South,12.7,-,N/A,,Clear,180,2013-03-31 10:55:00
7:15 AM,39.2,17.6,42,29.86,10.0,South,10.4,-,N/A,,Clear,170,2013-03-31 11:15:00
7:35 AM,39.2,17.6,42,29.85,10.0,South,9.2,-,N/A,,Clear,170,2013-03-31 11:35:00
7:55 AM,39.2,19.4,45,29.85,10.0,South,10.4,-,N/A,,Clear,170,2013-03-31 11:55:00
8:15 AM,39.2,19.4,45,29.84,10.0,South,10.4,-,N/A,,Clear,180,2013-03-31 12:15:00
8:35 AM,39.2,19.4,45,29.83,10.0,South,11.5,17.3,N/A,,Clear,170,2013-03-31 12:35:00
8:55 AM,41.0,21.2,45,29.82,10.0,South,10.4,-,N/A,,Clear,170,2013-03-31 12:55:00
9:15 AM,41.0,21.2,45,29.81,10.0,South,9.2,17.3,N/A,,Clear,170,2013-03-31 13:15:00
9:35 AM,42.8,21.2,42,29.80,10.0,South,11.5,16.1,N/A,,Clear,170,2013-03-31 13:35:00
9:55 AM,42.8,21.2,42,29.79,10.0,South,10.4,16.1,N/A,,Clear,170,2013-03-31 13:55:00
10:15 AM,42.8,23.0,46,29.79,5.0,SSE,11.5,-,N/A,,Partly Cloudy,160,2013-03-31 14:15:00
10:35 AM,44.6,24.8,46,29.78,10.0,South,10.4,-,N/A,,Scattered Clouds,170,2013-03-31 14:35:00
10:55 AM,44.6,24.8,46,29.78,10.0,South,9.2,-,N/A,,Mostly Cloudy,180,2013-03-31 14:55:00
11:15 AM,46.4,24.8,43,29.77,10.0,South,9.2,16.1,N/A,,Overcast,170,2013-03-31 15:15:00
11:35 AM,46.4,26.6,46,29.76,10.0,SSW,12.7,17.3,N/A,,Overcast,200,2013-03-31 15:35:00
11:55 AM,48.2,26.6,43,29.76,10.0,South,13.8,20.7,N/A,,Overcast,180,2013-03-31 15:55:00
12:15 PM,48.2,26.6,43,29.75,10.0,South,11.5,19.6,N/A,,Overcast,180,2013-03-31 16:15:00
12:35 PM,48.2,26.6,43,29.74,10.0,South,11.5,21.9,N/A,,Overcast,190,2013-03-31 16:35:00
12:55 PM,48.2,26.6,43,29.74,10.0,South,15.0,23.0,N/A,,Overcast,190,2013-03-31 16:55:00
1:15 PM,48.2,28.4,46,29.74,10.0,SW,12.7,21.9,N/A,,Overcast,220,2013-03-31 17:15:00
1:35 PM,46.4,30.2,53,29.73,10.0,SSW,12.7,24.2,N/A,,Overcast,210,2013-03-31 17:35:00
1:55 PM,44.6,33.8,66,29.73,10.0,SSW,13.8,23.0,N/A,,Overcast,200,2013-03-31 17:55:00
2:15 PM,42.8,35.6,76,29.73,10.0,South,12.7,-,N/A,,Overcast,180,2013-03-31 18:15:00
2:35 PM,42.8,37.4,81,29.73,10.0,SSW,10.4,-,N/A,,Overcast,200,2013-03-31 18:35:00
2:55 PM,42.8,37.4,81,29.72,10.0,South,10.4,-,N/A,,Overcast,190,2013-03-31 18:55:00
3:15 PM,41.0,37.4,87,29.71,9.0,South,9.2,-,N/A,,Overcast,190,2013-03-31 19:15:00
3:35 PM,41.0,37.4,87,29.70,10.0,South,9.2,-,N/A,,Mostly Cloudy,180,2013-03-31 19:35:00
3:55 PM,41.0,37.4,87,29.70,10.0,South,8.1,-,N/A,,Overcast,190,2013-03-31 19:55:00
4:15 PM,41.0,37.4,87,29.70,10.0,South,5.8,-,N/A,,Overcast,180,2013-03-31 20:15:00
4:35 PM,41.0,39.2,93,29.69,9.0,South,6.9,-,N/A,,Overcast,180,2013-03-31 20:35:00
4:55 PM,41.0,39.2,93,29.68,10.0,South,8.1,-,N/A,,Overcast,180,2013-03-31 20:55:00
5:15 PM,41.0,37.4,87,29.68,10.0,South,8.1,-,N/A,,Overcast,190,2013-03-31 21:15:00
5:35 PM,41.0,39.2,93,29.68,10.0,SSW,8.1,-,N/A,,Overcast,200,2013-03-31 21:35:00
5:55 PM,41.0,39.2,93,29.67,10.0,South,8.1,-,N/A,,Mostly Cloudy,180,2013-03-31 21:55:00
6:15 PM,41.0,37.4,87,29.67,10.0,South,8.1,-,N/A,,Overcast,180,2013-03-31 22:15:00
6:35 PM,41.0,37.4,87,29.67,10.0,South,9.2,-,N/A,,Overcast,190,2013-03-31 22:35:00
6:55 PM,41.0,37.4,87,29.67,10.0,South,6.9,-,N/A,,Overcast,190,2013-03-31 22:55:00
7:15 PM,39.2,37.4,93,29.67,10.0,South,6.9,-,N/A,,Overcast,190,2013-03-31 23:15:00
7:35 PM,39.2,37.4,93,29.67,10.0,SSW,6.9,-,N/A,,Overcast,200,2013-03-31 23:35:00
7:55 PM,41.0,37.4,87,29.67,10.0,South,8.1,-,N/A,,Overcast,190,2013-03-31 23:55:00
8:15 PM,41.0,37.4,87,29.66,10.0,South,6.9,-,N/A,,Overcast,190,2013-04-01 00:15:00
8:35 PM,41.0,39.2,93,29.67,9.0,SSW,5.8,-,N/A,,Overcast,210,2013-04-01 00:35:00
8:55 PM,41.0,37.4,87,29.68,9.0,WSW,10.4,-,0.02,,Overcast,250,2013-04-01 00:55:00
9:15 PM,41.0,39.2,93,29.68,10.0,SW,5.8,-,N/A,,Overcast,220,2013-04-01 01:15:00
9:35 PM,41.0,39.2,93,29.68,10.0,SSW,6.9,-,N/A,,Overcast,210,2013-04-01 01:35:00
9:55 PM,41.0,39.2,93,29.68,10.0,SW,8.1,-,N/A,,Overcast,220,2013-04-01 01:55:00
10:15 PM,41.0,37.4,87,29.68,8.0,SW,8.1,-,N/A,,Overcast,220,2013-04-01 02:15:00
10:35 PM,41.0,39.2,93,29.68,7.0,SSW,6.9,-,N/A,,Overcast,210,2013-04-01 02:35:00
11:15 PM,39.2,37.4,93,29.66,6.0,SSW,9.2,-,N/A,,Overcast,200,2013-04-01 03:15:00
11:35 PM,39.2,37.4,93,29.65,7.0,SSW,9.2,-,N/A,,Mostly Cloudy,210,2013-04-01 03:35:00
11:55 PM,39.2,37.4,93,29.64,7.0,SSW,9.2,-,N/A,,Clear,200,2013-04-01 03:55:00